Location: Casilda
(33.0440°S, 61.1680°W)
Time: 16:06:23
(UTC-03:00)

ISS - Pass Details

Date: 13 December 2017
Orbit: 402 x 407 km, 51.6° (Epoch: 11 December)

Event Time Altitude Azimuth Distance (km) Brightness Sun altitude
Exits shadow 02:20:03 10° 189° (S) 1,472 -0.3 -30.6°
Drops below altitude 10° 02:20:05 10° 188° (S) 1,476 -0.3 -30.6°
Sets 02:23:27 0° 152° (SSE) 2,350 1.2 -30.3°
